Weather History for PHBK - September, 2013

Change the Weather History Date:

Thursday, September 12, 2013

  Actual Average Record
Temperature  
Mean Temperature 80 °F -  
Max Temperature 87 °F 87 °F 91 °F (1977)
Min Temperature 73 °F 68 °F 65 °F (1964)
Cooling Degree Days 15    
Growing Degree Days 30 (Base 50)    
Moisture  
Dew Point 69 °F    
Average Humidity 70    
Maximum Humidity 79    
Minimum Humidity 51    
Precipitation  
Precipitation 0.00 in - - ()
Sea Level Pressure  
Sea Level Pressure 29.99 in    
Wind  
Wind Speed 3 mph (ESE)    
Max Wind Speed 20 mph    
Max Gust Speed 26 mph    
Visibility 10 miles    
Events Rain    
Averages and records for this station are not official NWS values.
T = Trace of Precipitation, MM = Missing Value Source: NWS Daily Summary

Daily Weather History Graph

Daily Weather History Graph

Search for Another Location

Airport or City:

Trip Planner

Search our weather history database for the weather conditions in past years. The results will help you decide how hot, cold, wet, or windy it might be!

Date:

Astronomy

Sep. 12, 2013 Rise Set
Actual Time 6:25 AM HST 6:44 PM HST
Civil Twilight 6:02 AM HST 7:07 PM HST
Nautical Twilight 5:36 AM HST 7:33 PM HST
Astronomical Twilight 5:10 AM HST 7:59 PM HST
Moon 1:18 PM HST (9/12) No Moon Set
Length of Visible Light 13h 04m
Length of Day
12h 19m
First Quarter, 52% of the Moon is Illuminated
Sep 12
First Quarter
Sep 19
Full
Sep 26
Last Quarter
Oct 4
New
Oct 11
First Quarter

Hourly Weather History & Observations

Time (HST) Temp. Heat Index Dew Point Humidity Pressure Visibility Wind Dir Wind Speed Gust Speed Precip Events Conditions
12:56 AM 77.0 °F - 64.0 °F 64% 30.03 in 10.0 mi Calm Calm - N/A   Clear
1:56 AM 75.9 °F - 64.9 °F 69% 30.01 in 10.0 mi East 4.6 mph - N/A   Clear
2:56 AM 75.9 °F - 66.0 °F 71% 30.00 in 10.0 mi ENE 3.5 mph - N/A   Clear
3:56 AM 75.0 °F - 66.0 °F 73% 29.99 in 10.0 mi NE 4.6 mph - N/A   Clear
4:56 AM 73.9 °F - 66.9 °F 79% 29.99 in 10.0 mi Calm Calm - N/A   Clear
5:56 AM 75.0 °F - 66.9 °F 76% 30.00 in 10.0 mi Calm Calm - N/A   Mostly Cloudy
6:56 AM 75.0 °F - 66.0 °F 73% 30.01 in 10.0 mi ESE 3.5 mph - N/A   Mostly Cloudy
7:56 AM 78.1 °F - 66.9 °F 68% 30.02 in 10.0 mi SE 3.5 mph - N/A   Mostly Cloudy
8:56 AM 81.0 °F 84.4 °F 70.0 °F 69% 30.04 in 10.0 mi West 4.6 mph - N/A   Overcast
10:56 AM 82.9 °F 88.0 °F 72.0 °F 69% 30.03 in 10.0 mi NNE 5.8 mph - 0.00 in Rain Light Rain
11:56 AM 82.0 °F 85.5 °F 69.1 °F 65% 30.02 in 10.0 mi Calm Calm - 0.00 in   Overcast
12:56 PM 81.0 °F 85.2 °F 72.0 °F 74% 30.00 in 10.0 mi SE 4.6 mph - 0.00 in   Scattered Clouds
1:56 PM 82.9 °F 88.0 °F 72.0 °F 69% 29.98 in 10.0 mi SW 6.9 mph - N/A   Overcast
2:56 PM 82.9 °F 88.8 °F 73.0 °F 72% 29.95 in 10.0 mi SW 9.2 mph - N/A   Mostly Cloudy
3:56 PM 84.0 °F 87.8 °F 69.1 °F 61% 29.94 in 10.0 mi SSE 3.5 mph - N/A   Partly Cloudy
4:56 PM 87.1 °F 89.9 °F 66.9 °F 51% 29.94 in 10.0 mi North 19.6 mph 26.5 mph N/A   Scattered Clouds
5:56 PM 84.0 °F 88.4 °F 70.0 °F 63% 29.94 in 10.0 mi Variable 4.6 mph - N/A   Mostly Cloudy
6:56 PM 81.0 °F 84.4 °F 70.0 °F 69% 29.96 in 10.0 mi Calm Calm - N/A   Mostly Cloudy
7:56 PM 81.0 °F 84.9 °F 71.1 °F 72% 29.98 in 10.0 mi SSW 4.6 mph - N/A   Scattered Clouds
8:56 PM 79.0 °F - 71.1 °F 77% 29.99 in 10.0 mi ESE 4.6 mph - N/A   Scattered Clouds
9:56 PM 78.1 °F - 70.0 °F 76% 30.00 in 10.0 mi ENE 3.5 mph - N/A   Scattered Clouds
10:56 PM 78.1 °F - 70.0 °F 76% 29.98 in 10.0 mi East 4.6 mph - N/A   Clear
11:56 PM 77.0 °F - 69.1 °F 76% 29.97 in 10.0 mi NE 3.5 mph - N/A   Clear